Provo, UT

10:13 AM MST on November 18, 2019 (GMT -0700)
Provo Municipal

Weather History for KPVU - September, 2019

Change the Weather History Date:

Sunday, September 8, 2019

  Actual Average Record
Temperature  
Mean Temperature 72 °F -  
Max Temperature 82 °F 78 °F 91 °F (2004)
Min Temperature 64 °F 50 °F 41 °F (1999)
Cooling Degree Days 8    
Growing Degree Days 22 (Base 50)    
Moisture  
Dew Point 50 °F    
Average Humidity 50    
Maximum Humidity 70    
Minimum Humidity 26    
Precipitation  
Precipitation 0.01 in - - ()
Sea Level Pressure  
Sea Level Pressure 29.81 in    
Wind  
Wind Speed 9 mph (NE)    
Max Wind Speed 24 mph    
Max Gust Speed 28 mph    
Visibility 10 miles    
Events Rain , Thunderstorm    
Averages and records for this station are not official NWS values.
T = Trace of Precipitation, MM = Missing Value Source: NWS Daily Summary

Daily Weather History Graph

Daily Weather History Graph

Search for Another Location

Airport or City:

Astronomy

Sep. 08, 2019 Rise Set
Actual Time 7:00 AM MDT 7:47 PM MDT
Civil Twilight 6:33 AM MDT 8:14 PM MDT
Nautical Twilight 6:00 AM MDT 8:47 PM MDT
Astronomical Twilight 5:27 AM MDT 9:21 PM MDT
Moon 4:59 PM MDT (9/8) 1:43 AM MDT (9/8)
Length of Visible Light 13h 41m
Length of Day
12h 46m
Waxing Gibbous, 75% of the Moon is Illuminated
Sep 8
Waxing Gibbous
Sep 13
Full
Sep 21
Last Quarter
Sep 28
New
Oct 5
First Quarter

Hourly Weather History & Observations

Time (MDT) Temp. Dew Point Humidity Pressure Visibility Wind Dir Wind Speed Gust Speed Precip Events Conditions
12:56 AM 70.0 °F 46.9 °F 44% 29.74 in 10.0 mi North - - N/A   Clear
1:56 AM 66.0 °F 50.0 °F 56% 29.72 in 10.0 mi Calm Calm - N/A   Clear
2:56 AM 70.0 °F 54.0 °F 57% 29.68 in 10.0 mi SW 6.9 mph - N/A   Partly Cloudy
3:56 AM 66.9 °F 53.1 °F 61% 29.68 in 10.0 mi South 5.8 mph - 0.00 in   Partly Cloudy
4:56 AM 64.0 °F 51.1 °F 63% 29.69 in 10.0 mi West 4.6 mph - N/A   Clear
5:24 AM 68.0 °F 57.2 °F 68% 29.84 in 10.0 mi NNE 4.6 mph - N/A Thunderstorm Mostly Cloudy
5:37 AM 68.0 °F 51.8 °F 56% 29.87 in 10.0 mi SE 17.3 mph 21.9 mph N/A Thunderstorm Mostly Cloudy
5:56 AM 68.0 °F 52.0 °F 56% 29.67 in 10.0 mi East 13.8 mph 20.7 mph 0.00 in Thunderstorm Thunderstorm
6:18 AM 69.8 °F 50.0 °F 49% 29.84 in 10.0 mi East 4.6 mph - N/A   Partly Cloudy
6:56 AM 70.0 °F 52.0 °F 53% 29.68 in 10.0 mi Variable 3.5 mph - N/A   Overcast
7:21 AM 69.8 °F 51.8 °F 53% 29.86 in 10.0 mi SSE 8.1 mph - N/A Thunderstorm Overcast
7:56 AM 70.0 °F 51.1 °F 51% 29.73 in 10.0 mi South 12.7 mph - 0.00 in Rain Light Rain
8:43 AM 66.2 °F 53.6 °F 64% 29.92 in 10.0 mi NE 6.9 mph - 0.00 in Rain , Thunderstorm Light Rain
8:56 AM 64.0 °F 54.0 °F 70% 29.78 in 10.0 mi Variable 5.8 mph - 0.00 in Rain Light Rain
9:56 AM 64.0 °F 53.1 °F 67% 29.73 in 10.0 mi ENE 12.7 mph - 0.00 in Rain Light Rain
10:56 AM 73.0 °F 51.1 °F 46% 29.70 in 10.0 mi SE 13.8 mph - 0.00 in   Mostly Cloudy
12:42 PM 75.2 °F 50.0 °F 41% 29.84 in 10.0 mi Variable 6.9 mph - N/A Thunderstorm Mostly Cloudy
12:56 PM 73.9 °F 51.1 °F 45% 29.84 in 10.0 mi SE 10.4 mph - N/A Thunderstorm Mostly Cloudy
1:07 PM 75.2 °F 48.2 °F 38% 29.82 in 10.0 mi ESE 15.0 mph 21.9 mph 0.00 in Rain Light Rain
1:31 PM 73.4 °F 50.0 °F 44% 29.85 in 10.0 mi SE 20.7 mph - 0.00 in Rain , Thunderstorm Light Thunderstorms and Rain
1:56 PM 73.0 °F 52.0 °F 48% 29.84 in 10.0 mi ESE 9.2 mph - 0.01 in   Scattered Clouds
2:56 PM 77.0 °F 46.0 °F 33% 29.82 in 10.0 mi ENE 6.9 mph - N/A   Mostly Cloudy
3:56 PM 81.0 °F 44.1 °F 27% 29.82 in 10.0 mi Variable 3.5 mph - N/A   Mostly Cloudy
4:10 PM 80.6 °F 42.8 °F 26% 29.81 in 10.0 mi NW 8.1 mph - N/A   Mostly Cloudy
4:41 PM 75.2 °F 53.6 °F 47% 29.83 in 10.0 mi NNW 24.2 mph 27.6 mph N/A   Mostly Cloudy
4:56 PM 75.9 °F 52.0 °F 43% 29.83 in 10.0 mi NNW 20.7 mph 25.3 mph N/A   Mostly Cloudy
5:56 PM 73.9 °F 48.9 °F 41% 29.84 in 10.0 mi NNW 20.7 mph 25.3 mph N/A   Mostly Cloudy
6:56 PM 72.0 °F 46.0 °F 40% 29.87 in 10.0 mi NNW 15.0 mph - N/A   Mostly Cloudy
7:56 PM 70.0 °F 45.0 °F 41% 29.89 in 10.0 mi North 6.9 mph - N/A   Mostly Cloudy
8:56 PM 69.1 °F 50.0 °F 51% 29.91 in 10.0 mi NNW 17.3 mph 21.9 mph N/A   Mostly Cloudy
9:56 PM 68.0 °F 52.0 °F 56% 29.93 in 10.0 mi NW 18.4 mph - N/A   Overcast
10:56 PM 66.0 °F 51.1 °F 59% 29.94 in 10.0 mi North 12.7 mph - N/A   Partly Cloudy
11:56 PM 64.0 °F 50.0 °F 60% 29.95 in 10.0 mi NNW 13.8 mph - N/A   Clear